Location: Kitchener
(43.4500°N, 80.5000°W)
Time: 23:10:08
(UTC-04:00)

Envisat - Visible Passes

Search period start: 23 September 2017 00:00
Search period end: 03 October 2017 00:00
Orbit: 764 x 766 km, 98.2° (Epoch: 23 September)

Date Brightness Start Highest point End Pass type
(mag) Time Alt. Az. Time Alt. Az. Time Alt. Az.
23 Sep 4.3 19:55:22 10° ESE 19:59:08 21° ENE 20:02:55 10° NNE visible
23 Sep 3.7 21:34:58 24° SSW 21:37:47 51° W 21:42:45 10° NNW visible
24 Sep 2.9 20:57:59 24° SSE 21:01:03 74° ENE 21:06:08 10° N visible
24 Sep 5.6 22:38:12 10° WSW 22:40:37 14° W 22:43:08 10° WNW visible
25 Sep 3.6 20:21:01 16° SE 20:24:31 35° ENE 20:29:05 10° N visible
25 Sep 4.7 22:01:14 21° SW 22:03:32 30° W 22:07:59 10° NW visible
26 Sep 4.5 19:44:53 10° ESE 19:48:10 18° ENE 19:51:27 10° NNE visible
26 Sep 3.3 21:24:15 31° S 21:26:39 65° WSW 21:31:43 10° NNW visible
27 Sep 3.0 20:47:16 26° SE 20:49:58 59° ENE 20:54:59 10° N visible
27 Sep 5.4 22:27:29 14° WSW 22:29:23 17° W 22:32:43 10° NW visible
28 Sep 3.9 20:10:18 15° ESE 20:13:30 28° ENE 20:17:48 10° N visible
28 Sep 4.3 21:50:31 28° SW 21:52:21 37° W 21:57:04 10° NNW visible
29 Sep 4.7 19:34:35 10° E 19:37:13 14° ENE 19:39:50 10° NNE visible
29 Sep 3.0 21:13:32 38° S 21:15:33 81° WSW 21:20:40 10° NNW visible
30 Sep 3.2 20:36:34 27° SE 20:38:55 47° ENE 20:43:47 10° N visible
30 Sep 5.1 22:16:47 19° WSW 22:18:10 22° W 22:22:04 10° NW visible
01 Oct 4.2 19:59:36 14° ESE 20:02:29 23° ENE 20:06:26 10° NNE visible
01 Oct 3.8 21:39:48 37° SW 21:41:12 47° W 21:46:07 10° NNW visible
02 Oct 4.9 19:24:39 10° ENE 19:26:16 11° ENE 19:27:54 10° NE visible
02 Oct 2.8 21:02:50 45° SSE 21:04:27 81° ENE 21:09:33 10° N visible
02 Oct 5.7 22:43:03 12° W 22:44:04 12° W 22:46:08 10° WNW visible
